Hourly Data Report for October 14, 2015

All times are specified in Local Standard Time (LST). Add 1 hour to adjust for Daylight Saving Time where and when it is observed.

OTTAWA INTL A
ONTARIO

45°19'00.000" N
75°40'00.000" W
114.90 m
6106001
71628
YOW

Download Data

Hourly Data (October 2015)
Hourly Data Report for October 14, 2015
Temp Definition
°C
Dew Point Temp Definition
°C
Rel Hum Definition
%
Wind Dir Definition
10's deg

Wind Spd Definition
km/h
Visibility Definition
km
Stn Press Definition
kPa
Hmdx Definition


Wind Chill Definition


Weather Definition


TIME
00:00 Legend Double Dagger 13.0 10.4 84 24 20 24.1 98.29     LegendNANA
01:00 Legend Double Dagger 12.7 9.2 79 28 26 24.1 98.37     Rain
02:00 Legend Double Dagger 11.7 8.4 80 29 16 24.1 98.44     LegendNANA
03:00 Legend Double Dagger 10.7 6.3 74 28 28 24.1 98.51     LegendNANA
04:00 Legend Double Dagger 9.8 5.2 73 29 28 24.1 98.59     Cloudy
05:00 Legend Double Dagger 8.6 4.1 73 29 27 24.1 98.72     LegendNANA
06:00 Legend Double Dagger 7.6 3.7 76 28 27 24.1 98.82     LegendNANA
07:00 Legend Double Dagger 6.9 3.0 76 31 25 24.1 98.94     Mostly Cloudy
08:00 Legend Double Dagger 6.9 1.4 68 31 35 24.1 99.07     LegendNANA
09:00 Legend Double Dagger 6.7 1.6 70 29 32 24.1 99.16     LegendNANA
10:00 Legend Double Dagger 7.4 1.3 65 30 24 24.1 99.24     Mostly Cloudy
11:00 Legend Double Dagger 7.8 1.9 66 27 26 24.1 99.32     LegendNANA
12:00 Legend Double Dagger 8.3 0.3 57 27 27 24.1 99.35     LegendNANA
13:00 Legend Double Dagger 7.2 1.1 65 28 24 24.1 99.41     Cloudy
14:00 Legend Double Dagger 8.1 -0.1 56 27 19 24.1 99.41     LegendNANA
15:00 Legend Double Dagger 8.6 -0.2 54 28 14 24.1 99.46     LegendNANA
16:00 Legend Double Dagger 8.0 -0.7 54 27 16 24.1 99.48     Mostly Cloudy
17:00 Legend Double Dagger 7.6 -0.4 57 27 12 24.1 99.53     LegendNANA
18:00 Legend Double Dagger 6.2 -0.8 61 25 8 24.1 99.57     LegendNANA
19:00 Legend Double Dagger 4.8 -1.4 64 22 6 24.1 99.62     Clear
20:00 Legend Double Dagger 3.1 -0.2 79 22 6 24.1 99.66     LegendNANA
21:00 Legend Double Dagger 3.0 0.1 81 25 8 24.1 99.69     LegendNANA
22:00 Legend Double Dagger 1.8 -0.6 84 24 10 24.1 99.69     Clear
23:00 Legend Double Dagger 0.6 -1.2 88 19 4 24.1 99.68     LegendNANA

Notes on Data Quality.

Legend

  • E = Estimated
  • M = Missing
  • NA = Not Available
  • ‡ = Partner data that is not subject to review by the National Climate Archives
Date modified: